Powrót do katalogu

STARLINK-30966

AktywnyŁącznośćVLEO
NORAD 58454·PAYLOAD·🇺🇸 United States

Wystrzelony Nov 28, 2023 z Cape Canaveral Space Force Station

Loading…

Następne Przeloty (najbliższe 24 godziny)

TLE

ŚwieżeSource: CelesTrak SupGP

Epoka: Sep 14, 2026, 20:51 UTC

1 58454C 23183T   26257.86923611  .00047666  00000+0  17265-2 0  2579
2 58454  43.0028  53.1292 0001917 277.1299 241.4962 15.27553878    12

Śledź STARLINK-30966 w czasie rzeczywistym z AllMySat

Download on the App Store